Location: Sydney
(46.1500°N, 60.1670°W)
Time: 17:40:06
(UTC-04:00)

Iridium 90 - Visible Passes

Search period start: 19 December 2014 00:00
Search period end: 29 December 2014 00:00
Orbit: 746 x 751 km, 86.4° (Epoch: 19 December)

Date Brightness Start Highest point End Pass type
(mag) Time Alt. Az. Time Alt. Az. Time Alt. Az.
19 Dec 6.6 05:58:00 10° N 06:02:52 44° E 06:07:40 10° SSE visible
19 Dec 6.1 18:52:31 10° S 18:55:52 43° S 18:55:52 43° S visible
19 Dec 8.5 20:35:49 10° W 20:35:49 10° W 20:35:49 10° W visible
20 Dec 7.8 05:16:37 10° NNE 05:20:30 22° ENE 05:24:21 10° SE visible
20 Dec 5.7 06:56:01 10° NNW 07:00:53 49° W 07:05:44 10° SSW visible
20 Dec 6.0 18:11:03 10° SSE 18:15:10 36° E 18:15:10 36° E visible
20 Dec 7.3 19:51:32 10° SW 19:55:07 27° W 19:55:07 27° W visible
21 Dec 8.6 04:37:09 10° ENE 04:37:53 10° ENE 04:38:38 10° ENE visible
21 Dec 5.6 06:13:49 10° N 06:18:54 79° E 06:23:57 10° S visible
21 Dec 6.7 17:30:35 10° ESE 17:33:57 18° ENE 17:34:30 18° ENE visible
21 Dec 5.9 19:08:35 10° SSW 19:13:34 59° W 19:14:27 51° NW visible
22 Dec 6.9 05:32:01 10° NNE 05:36:42 37° E 05:41:21 10° SSE visible
22 Dec 5.3 18:26:30 10° S 18:31:30 66° E 18:33:48 32° NNE visible
22 Dec 8.0 20:08:56 10° WSW 20:12:07 17° WNW 20:13:46 15° NW visible
23 Dec 8.1 04:50:49 10° NNE 04:54:17 18° ENE 04:57:43 10° ESE visible
23 Dec 5.5 06:29:51 10° N 06:34:50 60° W 06:39:46 10° SSW visible
23 Dec 6.1 17:45:14 10° SE 17:49:38 31° E 17:53:11 14° NNE visible
23 Dec 7.0 19:25:06 10° SW 19:29:40 33° WNW 19:33:08 16° NNW visible
24 Dec 5.9 05:47:44 10° N 05:52:47 65° E 05:57:47 10° SSE visible
24 Dec 7.0 17:05:10 10° ESE 17:07:58 15° ENE 17:10:46 10° NE visible
24 Dec 5.6 18:42:24 10° S 18:47:26 71° W 18:52:30 10° N visible
25 Dec 7.2 05:06:03 10° NNE 05:10:31 31° ENE 05:14:58 10° SE visible
25 Dec 6.1 06:46:06 10° NNW 06:50:38 34° W 06:55:08 10° SSW visible
25 Dec 5.5 18:00:31 10° SSE 18:05:25 54° E 18:10:21 10° NNE visible
25 Dec 7.8 19:42:13 10° WSW 19:45:53 20° WNW 19:49:34 10° NNW visible
26 Dec 8.2 04:25:08 10° NE 04:28:02 15° ENE 04:30:55 10° ESE visible
26 Dec 5.3 06:03:41 10° N 06:08:44 73° W 06:13:45 10° S visible
26 Dec 6.4 17:19:29 10° SE 17:23:36 26° E 17:27:43 10° NNE visible
26 Dec 6.7 18:58:45 10° SSW 19:03:29 40° W 19:08:16 10° N visible
27 Dec 6.2 05:21:40 10° N 05:26:38 53° E 05:31:34 10° SSE visible
27 Dec 6.7 07:02:43 10° NNW 07:06:19 20° WNW 07:09:54 10° SW visible
27 Dec 5.4 18:16:15 10° S 18:21:18 86° W 18:26:24 10° N visible
27 Dec 8.4 20:00:35 10° W 20:02:14 11° WNW 20:03:54 10° NW visible
28 Dec 7.5 04:40:07 10° NNE 04:44:19 26° ENE 04:48:29 10° SE visible
28 Dec 5.8 06:19:51 10° NNW 06:24:34 41° W 06:29:16 10° SSW visible
28 Dec 5.7 17:34:34 10° SSE 17:39:20 44° E 17:44:08 10° NNE visible
28 Dec 7.6 19:15:37 10° SW 19:19:39 24° WNW 19:23:43 10° NNW visible
